SCP
0 0 0 0 0 0 0 0 0 0 0 0 0 0 0 0 0 -0 -0 -0 -0 -0 -0 -0 -0 -0 0 0 0 -0 -0 0 0 0 0 0 0 0 0 0 0 0 0 0
0 0 0 0 0 0 0 0 0 0 0 0 0 0 0 0 0 -0 -0 -0 -0 -0 -0 -0 -0 -0 -0 0 -0 -0 -0 0 0 0 0 0 0 0 0 0 0 0 0 0
0 0 0 0 0 0 0 0 0 0 0 0 0 0 0 0 -0 -0 -0 -0 -0 -0 -0 -0 -0 -0 -0 -0 0 -0 -0 -0 0 0 0 0 0 0 0 0 0 0 0 0
0 0 0 0 0 0 0 0 0 0 0 0 0 0 0 0 0 -0 -0 -0 -0 -0 -0 -0 -0 -0 -0 -0 -0 0 -0 -0 0 0 0 0 0 0 0 0 0 0 0 0
0 0 0 0 0 0 0 0 0 0 0 0 0 0 0 0 0 -0 -0 -0 -0 -0 -0 -0 -0 -0 -0 -0 -0 -0 -0 -0 -0 0 0 0 0 0 0 0 0 0 0 0
0 0 0 0 0 0 0 0 0 0 0 0 0 0 0 0 0 0 -0 -0 -0 -0 -0 -0 -0 -0 -0 -0 -0 -0 0 -0 -0 0 0 0 0 0 0 0 0 0 0 0
0 0 0 0 0 0 0 0 0 0 0 0 0 0 0 0 0 0 0 -0 -0 -0 -0 -0 -0 -0 -0 -0 -0 -0 0 -0 -0 -0 -0 0 0 0 0 0 0 0 0 -0
0 0 0 0 0 0 0 0 0 0 0 0 0 0 0 0 0 0 -0 -0 -0 -0 0 -0 -0 -0 -0 -0 -0 0 0 -0 -0 -0 -0 -0 -0 -0 0 0 0 0 0 0
0 0 0 0 0 0 0 0 0 0 0 0 0 0 0 0 0 0 -0 -0 0 0 0 -0 -0 -0 -0 -0 -0 0 0 0 -0 -0 -0 -0 -0 -0 0 0 0 0 0 0
0 0 0 -0 0 0 0 0 0 0 0 0 0 0 0 0 0 0 0 -0 0 0 -0 -0 -0 0 -0 -0 -0 0 0 0 -0 -0 0 -0 -0 0 0 0 0 0 0 0
0 0 0 0 0 0 0 0 0 0 0 0 0 0 0 0 0 0 0 0 -0 0 0 0 0 0 0 0 0 0 0 0 -0 0 -0 0 0 -0 -0 0 -0 -0 -0 -0
0 0 0 0 0 0 0 0 0 0 0 0 0 0 0 0 0 0 0 0 0 0 0 0 0 0 0 0 0 0 0 0 0 0 0 0 0 0 0 0 -0 -0 -0 -0
0 0 0 0 0 0 0 -0 0 0 0 0 0 0 0 0 0 0 0 0 0 0 0 0 0 0 0 0 0 0 0 0 0 0 0 0 0 0 0 0 0 -0 -0 -0
0 0 0 0 0 0 0 0 0 0 0 0 0 0 0 0 0 0 0 0 0 0 0 0 0 0 0 0 0 0 0 0 0 0 0 0 0 0 0 0 0 0 0 0
-0 -0 0 0 0 0 0 0 0 0 0 0 0 0 0 0 0 0 0 0 0 0 0 0 0 0 0 0 0 -0 0 0 0 0 0 0 0 0 0 0 0 0 0 0
-0 -0 0 0 0 0 0 0 0 0 0 -0 0 0 0 0 0 0 0 0 0 0 0 0 0 0 0 0 0 0 0 0 0 0 0 0 0 0 0 0 0 0 0 0
0 -0 -0 0 0 0 0 0 0 0 0 0 0 0 0 0 0 0 0 0 0 0 0 0 0 0 0 0 0 0 0 0 0 0 0 0 0 0 0 0 0 0 0 0
-0 -0 -0 0 0 0 0 0 0 0 0 0 0 0 0 0 0 0 0 0 0 1 0 0 0 1 0 0 0 0 0 0 0 0 0 0 0 0 0 0 0 0 0 0
-0 0 -0 0 0 0 0 0 0 0 0 0 0 0 0 0 0 0 0 0 0 0 1 0 1 1 1 0 0 0 0 0 0 0 0 0 0 0 0 0 0 0 0 0
0 0 0 -0 0 -0 0 0 0 0 0 0 0 0 0 0 0 0 0 1 1 1 1 1 1 1 1 0 0 0 0 0 0 0 0 0 0 0 0 0 0 0 0 0
0 0 0 0 -0 0 -0 0 0 -0 0 0 0 0 0 0 1 1 1 1 1 0 0 1 1 0 0 0 0 0 0 0 0 0 0 0 0 0 0 0 0 0 0 0
0 0 0 0 0 0 0 0 -0 -0 -0 0 -0 -0 0 0 0 0 0 0 0 0 0 0 0 0 0 0 0 0 0 0 0 0 0 0 0 0 0 0 0 0 0 0
0 0 0 0 0 0 0 0 -0 -1 -0 -0 -0 0 0 0 0 0 0 0 0 0 0 0 0 0 0 0 0 0 0 0 0 0 0 0 0 0 0 0 0 0 0 0
0 0 0 0 0 0 0 0 0 0 0 0 0 0 0 0 0 0 0 0 0 0 0 0 0 0 0 0 0 0 0 0 0 0 0 0 0 0 0 0 0 0 0 0
0 0 0 0 0 0 0 0 0 1 1 0 0 0 0 0 0 0 0 0 0 0 0 0 0 0 0 0 0 0 0 0 0 0 0 0 0 0 0 0 0 0 0 0
-0 0 0 0 0 0 0 0 0 0 0 0 0 0 0 0 0 0 0 0 0 0 0 0 0 0 0 0 0 0 0 0 0 0 0 0 0 0 0 0 0 0 0 0
0 -0 -0 0 0 0 0 0 0 0 0 0 0 0 0 0 0 0 0 0 0 0 0 0 0 0 0 0 0 0 0 0 0 0 0 0 0 0 0 0 0 0 0 0
Wind_Speed_500mb
47 41 24 43 43 41 34 19 28 16 13 21 21 19 35 67 68 67 68 66 66 63 56 50 43 42 33 27 34 29 26 14 16 12 23 21 22 20 23 25 31 32 30 31
33 41 41 25 53 44 40 23 15 26 24 21 27 50 34 61 66 64 69 70 67 63 59 55 49 46 40 32 38 32 27 20 14 21 25 21 21 19 22 26 29 26 28 30
43 36 22 29 37 47 38 19 27 27 12 8 11 19 25 60 72 71 73 76 71 68 62 58 55 47 44 39 41 33 30 24 12 31 28 27 26 25 21 18 20 17 24 30
21 26 37 18 25 34 38 34 20 16 28 17 16 21 51 80 78 79 82 80 72 70 62 58 55 50 45 45 43 34 34 28 17 35 31 29 33 30 24 17 11 21 36 34
16 29 4 20 26 46 29 29 30 19 24 28 51 29 14 79 78 80 80 82 81 75 65 60 59 54 52 48 44 36 40 37 25 34 33 36 35 35 31 21 14 27 33 37
1 17 38 15 14 15 15 23 23 23 21 17 29 19 10 66 77 75 73 76 81 77 70 65 63 60 57 53 49 40 41 44 30 28 37 36 36 31 37 31 23 22 28 30
12 9 10 19 16 8 20 15 18 43 35 27 15 20 42 39 77 72 76 76 78 78 76 71 65 64 62 59 55 42 38 42 37 31 39 30 39 32 32 40 33 21 23 27
7 8 9 9 12 14 12 14 50 51 65 54 50 46 32 25 64 77 79 76 78 82 79 73 68 64 65 64 56 46 44 46 45 38 42 41 38 37 31 41 41 33 23 22
11 11 9 23 4 35 51 39 34 47 63 68 56 51 47 26 67 80 79 81 81 82 81 76 71 63 65 62 58 52 47 52 51 44 41 44 44 41 38 43 43 42 38 32
18 32 35 46 65 79 28 50 43 37 54 74 64 53 42 39 54 79 81 80 83 86 83 79 74 64 57 62 62 57 51 55 56 51 47 44 41 42 42 46 52 47 45 42
11 32 47 55 80 81 68 37 7 37 44 75 70 60 56 55 62 78 75 80 82 85 80 76 74 67 58 62 64 63 57 56 61 57 52 47 45 44 41 44 50 51 46 46
8 34 16 41 79 64 63 57 38 46 26 74 73 70 66 61 78 74 68 76 79 80 73 70 70 67 63 63 68 69 64 64 63 64 60 51 44 45 39 39 40 50 36 36
8 32 43 56 60 67 55 44 36 20 19 54 64 65 61 58 77 68 63 72 78 76 73 66 66 68 66 65 66 71 75 72 67 67 66 60 51 49 45 38 40 31 44 38
34 36 37 46 68 77 50 42 39 12 15 60 39 68 63 73 66 61 52 66 70 63 62 65 64 61 60 63 65 70 77 74 75 72 70 66 57 52 51 49 55 48 54 53
22 20 38 55 73 59 41 31 35 32 22 82 82 60 62 66 63 58 47 69 72 63 59 59 59 55 59 62 66 71 75 80 77 75 72 67 61 54 54 55 56 57 58 64
31 17 33 56 63 59 39 32 31 25 19 83 59 67 64 70 62 55 52 43 71 69 64 66 66 63 62 65 68 72 77 81 85 80 77 70 63 61 59 61 60 61 68 70
28 21 18 56 55 56 38 22 22 38 49 40 91 44 60 52 48 50 41 37 29 45 49 50 47 67 66 67 69 71 80 81 85 87 83 81 73 69 69 63 69 67 65 63
39 43 24 41 49 48 42 29 26 37 52 55 44 18 49 45 34 29 27 31 22 32 36 36 35 26 47 70 67 71 73 79 81 89 90 81 80 78 74 76 72 72 71 68
65 42 31 34 50 48 39 41 39 46 51 50 30 22 18 34 35 29 30 30 28 39 34 37 38 35 26 46 73 71 75 76 70 79 90 88 71 74 75 72 80 75 75 75
53 49 37 38 33 40 45 48 46 59 56 52 35 14 17 54 41 39 42 44 41 44 44 42 40 26 20 23 39 69 67 73 66 64 75 88 86 86 65 81 69 82 79 83
43 53 43 46 48 44 41 42 53 59 62 48 51 34 16 15 16 33 43 43 42 44 42 40 38 29 29 30 28 38 50 54 64 59 57 67 75 83 78 85 66 70 71 85
15 9 15 25 29 42 53 49 45 55 50 48 44 19 3 10 22 41 36 39 31 28 32 33 35 32 28 26 32 33 46 40 39 57 57 54 58 63 75 70 77 68 65 83
31 24 22 21 20 14 23 36 52 52 46 44 22 5 26 41 34 39 37 20 24 23 27 34 35 31 31 35 34 33 31 28 40 36 38 50 55 50 54 68 66 70 66 66
19 24 30 37 37 36 25 31 25 19 5 12 15 27 33 48 38 27 32 17 1 10 17 20 17 11 11 17 18 23 23 31 32 37 45 45 51 45 50 55 55 65 67 67
18 21 16 14 25 29 21 23 33 40 45 41 38 33 31 28 32 43 25 23 28 22 25 27 29 27 19 14 16 20 22 21 20 22 25 34 39 43 48 47 55 65 71 73
79 51 55 49 46 42 31 40 39 40 54 59 51 49 51 49 50 47 43 37 31 25 27 25 24 22 19 14 12 10 9 13 17 18 24 27 31 40 44 54 67 70 74 77
77 70 62 64 56 51 51 52 50 46 53 58 56 50 48 39 38 38 35 29 30 16 17 22 20 19 19 16 9 6 7 7 7 13 16 17 20 25 28 37 51 63 71 74
Wind_Direction_500mb
224 247 255 193 184 184 201 178 191 194 182 168 171 178 160 163 163 166 171 174 177 178 178 185 185 194 197 182 191 182 193 196 167 150 123 108 104 100 94 98 97 110 130 131
222 224 239 251 185 191 203 187 178 183 233 180 198 180 153 161 163 169 174 177 180 183 183 185 187 192 195 184 191 182 197 195 174 155 137 144 123 124 108 98 117 105 105 125
215 222 236 234 211 199 202 195 183 204 182 227 169 187 165 166 168 172 177 180 183 184 187 188 189 190 195 189 191 184 193 194 191 156 158 159 145 131 132 132 111 111 123 127
199 198 229 239 214 192 201 199 208 171 184 202 211 230 198 168 168 176 180 182 186 186 190 191 191 191 193 192 194 186 192 198 197 168 177 171 161 155 155 155 130 126 136 130
185 194 117 254 181 195 198 207 196 184 190 197 216 213 166 177 179 181 183 186 189 189 188 190 191 188 190 193 196 190 191 200 192 180 185 169 174 174 168 169 148 138 138 143
353 169 211 192 234 169 154 195 186 173 189 171 180 201 225 184 183 181 182 186 188 189 189 189 191 189 189 193 198 195 189 202 197 187 192 181 188 187 184 179 165 149 152 154
230 145 252 183 234 182 194 226 193 183 185 178 171 180 211 209 184 184 181 183 189 189 191 192 190 190 191 194 200 201 189 202 200 194 197 197 194 199 188 177 168 172 164 171
159 112 209 184 288 229 210 184 179 181 188 183 194 196 206 207 183 178 177 180 186 188 193 192 193 193 194 196 200 199 192 200 202 196 198 201 204 205 199 182 177 181 202 192
6 198 275 137 209 298 241 175 167 188 185 193 190 199 208 190 181 176 176 179 185 192 192 193 196 199 197 200 195 198 194 201 203 201 205 208 209 211 208 196 186 191 198 211
348 14 341 2 12 359 349 171 162 173 196 191 183 184 189 192 180 176 176 179 185 191 191 192 198 203 208 199 194 197 196 204 204 203 205 208 214 219 218 208 201 199 204 210
280 357 349 3 347 340 342 19 154 195 208 197 192 188 192 175 172 170 173 179 185 191 193 199 200 204 207 203 196 197 198 207 208 207 209 212 223 224 227 224 216 211 212 221
310 337 336 317 326 338 353 7 352 21 202 192 191 188 191 178 171 170 172 178 183 190 193 200 203 205 207 206 201 198 199 209 212 208 210 217 221 218 231 235 221 217 220 214
244 302 313 318 335 342 352 356 342 322 12 5 190 189 194 193 173 167 174 182 184 190 195 200 205 207 210 209 207 203 202 209 214 213 213 215 218 220 218 210 208 211 209 206
293 323 331 332 327 330 342 3 356 351 53 346 271 193 180 169 167 169 177 182 178 183 193 201 206 211 215 213 211 209 206 213 216 217 216 219 224 227 224 214 205 204 204 203
256 295 292 300 319 318 329 4 14 27 217 277 295 176 162 169 167 171 171 177 179 186 191 192 203 215 217 215 212 212 209 211 217 220 222 221 225 229 224 222 219 215 209 208
226 258 296 289 300 309 301 322 330 351 288 313 318 171 171 163 164 170 175 172 189 191 192 197 203 210 216 219 217 213 214 215 215 217 219 219 222 227 227 223 226 225 222 217
181 186 258 286 290 298 289 306 308 290 315 340 304 144 134 134 137 142 153 166 152 174 184 188 198 210 212 215 218 217 215 217 220 219 219 220 222 223 228 227 224 229 235 232
263 230 234 257 276 282 301 314 258 250 279 276 284 98 143 153 153 155 150 159 157 176 181 194 208 206 210 214 217 213 216 219 221 221 222 221 224 227 229 229 229 230 233 238
246 241 209 247 252 265 273 293 283 302 300 331 12 2 74 142 150 165 178 185 195 182 180 193 206 220 207 205 213 215 215 216 222 223 221 219 224 228 229 231 230 228 229 238
239 250 229 223 222 251 259 269 262 284 304 321 330 341 138 222 177 181 183 196 193 193 193 201 213 212 215 186 196 211 215 215 219 228 225 225 223 227 227 230 233 233 230 232
229 242 243 221 209 225 248 257 274 280 285 306 312 325 301 222 154 184 190 184 170 179 197 206 226 229 234 235 219 206 208 218 221 224 232 232 233 232 229 232 234 239 236 238
291 301 233 226 236 213 237 258 265 283 285 299 298 310 72 178 145 152 150 166 160 172 186 197 214 222 227 229 229 225 216 211 217 224 228 238 238 237 234 230 234 235 246 242
251 242 244 238 254 283 231 252 270 285 279 261 258 244 126 125 136 121 112 116 182 207 212 219 226 233 233 231 226 226 227 230 228 224 229 234 240 237 237 232 232 235 239 237
280 263 254 251 244 247 253 290 245 250 174 212 190 170 159 128 119 158 200 230 230 174 197 208 201 157 140 156 196 206 221 228 235 233 233 226 233 236 231 226 235 232 234 228
48 163 171 219 221 230 237 205 158 129 117 111 122 134 156 165 176 124 126 162 158 142 136 136 127 123 132 161 147 150 159 172 186 189 188 198 208 214 220 228 232 228 226 226
45 86 75 85 89 113 138 152 135 117 107 98 99 102 107 112 119 126 129 134 125 132 140 137 132 132 135 151 180 184 197 215 225 226 229 233 235 234 231 225 221 223 225 227
47 52 72 76 69 70 86 88 105 108 109 111 109 110 105 102 121 126 136 139 126 130 126 146 153 161 163 168 181 212 210 211 211 230 246 257 261 254 243 234 228 226 224 223
Wind_Speed_850mb
47 41 24 43 43 41 34 19 28 16 13 21 21 19 35 67 68 67 68 66 66 63 56 50 43 42 33 27 34 29 26 14 16 12 23 21 22 20 23 25 31 32 30 31
33 41 41 25 53 44 40 23 15 26 24 21 27 50 34 61 66 64 69 70 67 63 59 55 49 46 40 32 38 32 27 20 14 21 25 21 21 19 22 26 29 26 28 30
43 36 22 29 37 47 38 19 27 27 12 8 11 19 25 60 72 71 73 76 71 68 62 58 55 47 44 39 41 33 30 24 12 31 28 27 26 25 21 18 20 17 24 30
21 26 37 18 25 34 38 34 20 16 28 17 16 21 51 80 78 79 82 80 72 70 62 58 55 50 45 45 43 34 34 28 17 35 31 29 33 30 24 17 11 21 36 34
16 29 4 20 26 46 29 29 30 19 24 28 51 29 14 79 78 80 80 82 81 75 65 60 59 54 52 48 44 36 40 37 25 34 33 36 35 35 31 21 14 27 33 37
1 17 38 15 14 15 15 23 23 23 21 17 29 19 10 66 77 75 73 76 81 77 70 65 63 60 57 53 49 40 41 44 30 28 37 36 36 31 37 31 23 22 28 30
12 9 10 19 16 8 20 15 18 43 35 27 15 20 42 39 77 72 76 76 78 78 76 71 65 64 62 59 55 42 38 42 37 31 39 30 39 32 32 40 33 21 23 27
7 8 9 9 12 14 12 14 50 51 65 54 50 46 32 25 64 77 79 76 78 82 79 73 68 64 65 64 56 46 44 46 45 38 42 41 38 37 31 41 41 33 23 22
11 11 9 23 4 35 51 39 34 47 63 68 56 51 47 26 67 80 79 81 81 82 81 76 71 63 65 62 58 52 47 52 51 44 41 44 44 41 38 43 43 42 38 32
18 32 35 46 65 79 28 50 43 37 54 74 64 53 42 39 54 79 81 80 83 86 83 79 74 64 57 62 62 57 51 55 56 51 47 44 41 42 42 46 52 47 45 42
11 32 47 55 80 81 68 37 7 37 44 75 70 60 56 55 62 78 75 80 82 85 80 76 74 67 58 62 64 63 57 56 61 57 52 47 45 44 41 44 50 51 46 46
8 34 16 41 79 64 63 57 38 46 26 74 73 70 66 61 78 74 68 76 79 80 73 70 70 67 63 63 68 69 64 64 63 64 60 51 44 45 39 39 40 50 36 36
8 32 43 56 60 67 55 44 36 20 19 54 64 65 61 58 77 68 63 72 78 76 73 66 66 68 66 65 66 71 75 72 67 67 66 60 51 49 45 38 40 31 44 38
34 36 37 46 68 77 50 42 39 12 15 60 39 68 63 73 66 61 52 66 70 63 62 65 64 61 60 63 65 70 77 74 75 72 70 66 57 52 51 49 55 48 54 53
22 20 38 55 73 59 41 31 35 32 22 82 82 60 62 66 63 58 47 69 72 63 59 59 59 55 59 62 66 71 75 80 77 75 72 67 61 54 54 55 56 57 58 64
31 17 33 56 63 59 39 32 31 25 19 83 59 67 64 70 62 55 52 43 71 69 64 66 66 63 62 65 68 72 77 81 85 80 77 70 63 61 59 61 60 61 68 70
28 21 18 56 55 56 38 22 22 38 49 40 91 44 60 52 48 50 41 37 29 45 49 50 47 67 66 67 69 71 80 81 85 87 83 81 73 69 69 63 69 67 65 63
39 43 24 41 49 48 42 29 26 37 52 55 44 18 49 45 34 29 27 31 22 32 36 36 35 26 47 70 67 71 73 79 81 89 90 81 80 78 74 76 72 72 71 68
65 42 31 34 50 48 39 41 39 46 51 50 30 22 18 34 35 29 30 30 28 39 34 37 38 35 26 46 73 71 75 76 70 79 90 88 71 74 75 72 80 75 75 75
53 49 37 38 33 40 45 48 46 59 56 52 35 14 17 54 41 39 42 44 41 44 44 42 40 26 20 23 39 69 67 73 66 64 75 88 86 86 65 81 69 82 79 83
43 53 43 46 48 44 41 42 53 59 62 48 51 34 16 15 16 33 43 43 42 44 42 40 38 29 29 30 28 38 50 54 64 59 57 67 75 83 78 85 66 70 71 85
15 9 15 25 29 42 53 49 45 55 50 48 44 19 3 10 22 41 36 39 31 28 32 33 35 32 28 26 32 33 46 40 39 57 57 54 58 63 75 70 77 68 65 83
31 24 22 21 20 14 23 36 52 52 46 44 22 5 26 41 34 39 37 20 24 23 27 34 35 31 31 35 34 33 31 28 40 36 38 50 55 50 54 68 66 70 66 66
19 24 30 37 37 36 25 31 25 19 5 12 15 27 33 48 38 27 32 17 1 10 17 20 17 11 11 17 18 23 23 31 32 37 45 45 51 45 50 55 55 65 67 67
18 21 16 14 25 29 21 23 33 40 45 41 38 33 31 28 32 43 25 23 28 22 25 27 29 27 19 14 16 20 22 21 20 22 25 34 39 43 48 47 55 65 71 73
79 51 55 49 46 42 31 40 39 40 54 59 51 49 51 49 50 47 43 37 31 25 27 25 24 22 19 14 12 10 9 13 17 18 24 27 31 40 44 54 67 70 74 77
77 70 62 64 56 51 51 52 50 46 53 58 56 50 48 39 38 38 35 29 30 16 17 22 20 19 19 16 9 6 7 7 7 13 16 17 20 25 28 37 51 63 71 74
Wind_Direction_850mb
224 247 255 193 184 184 201 178 191 194 182 168 171 178 160 163 163 166 171 174 177 178 178 185 185 194 197 182 191 182 193 196 167 150 123 108 104 100 94 98 97 110 130 131
222 224 239 251 185 191 203 187 178 183 233 180 198 180 153 161 163 169 174 177 180 183 183 185 187 192 195 184 191 182 197 195 174 155 137 144 123 124 108 98 117 105 105 125
215 222 236 234 211 199 202 195 183 204 182 227 169 187 165 166 168 172 177 180 183 184 187 188 189 190 195 189 191 184 193 194 191 156 158 159 145 131 132 132 111 111 123 127
199 198 229 239 214 192 201 199 208 171 184 202 211 230 198 168 168 176 180 182 186 186 190 191 191 191 193 192 194 186 192 198 197 168 177 171 161 155 155 155 130 126 136 130
185 194 117 254 181 195 198 207 196 184 190 197 216 213 166 177 179 181 183 186 189 189 188 190 191 188 190 193 196 190 191 200 192 180 185 169 174 174 168 169 148 138 138 143
353 169 211 192 234 169 154 195 186 173 189 171 180 201 225 184 183 181 182 186 188 189 189 189 191 189 189 193 198 195 189 202 197 187 192 181 188 187 184 179 165 149 152 154
230 145 252 183 234 182 194 226 193 183 185 178 171 180 211 209 184 184 181 183 189 189 191 192 190 190 191 194 200 201 189 202 200 194 197 197 194 199 188 177 168 172 164 171
159 112 209 184 288 229 210 184 179 181 188 183 194 196 206 207 183 178 177 180 186 188 193 192 193 193 194 196 200 199 192 200 202 196 198 201 204 205 199 182 177 181 202 192
6 198 275 137 209 298 241 175 167 188 185 193 190 199 208 190 181 176 176 179 185 192 192 193 196 199 197 200 195 198 194 201 203 201 205 208 209 211 208 196 186 191 198 211
348 14 341 2 12 359 349 171 162 173 196 191 183 184 189 192 180 176 176 179 185 191 191 192 198 203 208 199 194 197 196 204 204 203 205 208 214 219 218 208 201 199 204 210
280 357 349 3 347 340 342 19 154 195 208 197 192 188 192 175 172 170 173 179 185 191 193 199 200 204 207 203 196 197 198 207 208 207 209 212 223 224 227 224 216 211 212 221
310 337 336 317 326 338 353 7 352 21 202 192 191 188 191 178 171 170 172 178 183 190 193 200 203 205 207 206 201 198 199 209 212 208 210 217 221 218 231 235 221 217 220 214
244 302 313 318 335 342 352 356 342 322 12 5 190 189 194 193 173 167 174 182 184 190 195 200 205 207 210 209 207 203 202 209 214 213 213 215 218 220 218 210 208 211 209 206
293 323 331 332 327 330 342 3 356 351 53 346 271 193 180 169 167 169 177 182 178 183 193 201 206 211 215 213 211 209 206 213 216 217 216 219 224 227 224 214 205 204 204 203
256 295 292 300 319 318 329 4 14 27 217 277 295 176 162 169 167 171 171 177 179 186 191 192 203 215 217 215 212 212 209 211 217 220 222 221 225 229 224 222 219 215 209 208
226 258 296 289 300 309 301 322 330 351 288 313 318 171 171 163 164 170 175 172 189 191 192 197 203 210 216 219 217 213 214 215 215 217 219 219 222 227 227 223 226 225 222 217
181 186 258 286 290 298 289 306 308 290 315 340 304 144 134 134 137 142 153 166 152 174 184 188 198 210 212 215 218 217 215 217 220 219 219 220 222 223 228 227 224 229 235 232
263 230 234 257 276 282 301 314 258 250 279 276 284 98 143 153 153 155 150 159 157 176 181 194 208 206 210 214 217 213 216 219 221 221 222 221 224 227 229 229 229 230 233 238
246 241 209 247 252 265 273 293 283 302 300 331 12 2 74 142 150 165 178 185 195 182 180 193 206 220 207 205 213 215 215 216 222 223 221 219 224 228 229 231 230 228 229 238
239 250 229 223 222 251 259 269 262 284 304 321 330 341 138 222 177 181 183 196 193 193 193 201 213 212 215 186 196 211 215 215 219 228 225 225 223 227 227 230 233 233 230 232
229 242 243 221 209 225 248 257 274 280 285 306 312 325 301 222 154 184 190 184 170 179 197 206 226 229 234 235 219 206 208 218 221 224 232 232 233 232 229 232 234 239 236 238
291 301 233 226 236 213 237 258 265 283 285 299 298 310 72 178 145 152 150 166 160 172 186 197 214 222 227 229 229 225 216 211 217 224 228 238 238 237 234 230 234 235 246 242
251 242 244 238 254 283 231 252 270 285 279 261 258 244 126 125 136 121 112 116 182 207 212 219 226 233 233 231 226 226 227 230 228 224 229 234 240 237 237 232 232 235 239 237
280 263 254 251 244 247 253 290 245 250 174 212 190 170 159 128 119 158 200 230 230 174 197 208 201 157 140 156 196 206 221 228 235 233 233 226 233 236 231 226 235 232 234 228
48 163 171 219 221 230 237 205 158 129 117 111 122 134 156 165 176 124 126 162 158 142 136 136 127 123 132 161 147 150 159 172 186 189 188 198 208 214 220 228 232 228 226 226
45 86 75 85 89 113 138 152 135 117 107 98 99 102 107 112 119 126 129 134 125 132 140 137 132 132 135 151 180 184 197 215 225 226 229 233 235 234 231 225 221 223 225 227
47 52 72 76 69 70 86 88 105 108 109 111 109 110 105 102 121 126 136 139 126 130 126 146 153 161 163 168 181 212 210 211 211 230 246 257 261 254 243 234 228 226 224 223